This demonstration page uses our WeatherBlox Daily Observations layout. Learn more.

Left ArrowRight Arrow

44.89941, -97.11507

Hourly Observations for March 15, 2017

Temp ( °F °C ) Dew Point ( °F °C ) Humidity (%) Winds ( mph kmh ) Pressure ( in mb ) Visibility ( mi km ) Precip ( " mm )
12:53 am 00:53 Clear 7 -13.9 0 -17.8 73 73 SSE 9 15 30.46 1032 10 16 0.00 0.00
1:53 am 01:53 Mostly Clear 6 -14.4 0 -17.8 76 76 SSE 8 13 30.45 1031 10 16 0.00 0.00
2:05 am 02:05 Mostly Cloudy 7 -13.9 1 -17.2 76 76 SSE 8 13 30.53 1034 10 16 0.00 0.00
2:30 am 02:30 Partly Cloudy 7 -13.9 1 -17.2 76 76 SSE 7 11 30.53 1034 10 16 0.00 0.00
2:53 am 02:53 Clear 8 -13.3 1 -17.2 73 73 SSE 8 13 30.44 1031 10 16 0.00 0.00
3:53 am 03:53 Clear 7 -13.9 1 -17.2 76 76 SSE 8 13 30.43 1031 10 16 0.00 0.00
4:53 am 04:53 Clear 8 -13.3 1 -17.2 73 73 SSE 13 20 30.42 1030 10 16 0.00 0.00
5:53 am 05:53 Clear 7 -13.9 0 -17.8 73 73 SSE 12 19 30.41 1030 10 16 0.00 0.00
6:53 am 06:53 Clear 7 -13.9 0 -17.8 73 73 SSE 15 24 30.39 1029 10 16 0.00 0.00
7:53 am 07:53 Sunny 8 -13.3 2 -16.7 76 76 SSE 17 28 30.37 1028 10 16 0.00 0.00
8:53 am 08:53 Sunny 11 -11.7 4 -15.6 73 73 SSE 16 26 30.35 1028 10 16 0.00 0.00
9:53 am 09:53 Sunny 12 -11.1 6 -14.4 77 77 SSE 17 28 30.35 1028 10 16 0.00 0.00
10:53 am 10:53 Sunny 17 -8.3 11 -11.7 77 77 SSE 18 30 30.32 1027 10 16 0.00 0.00
11:53 am 11:53 Partly Cloudy 21 -6.1 15 -9.4 78 78 S 17 28 30.31 1026 10 16 0.00 0.00
12:01 pm 12:01 Mostly Cloudy 21 -6.1 15 -9.4 78 78 S 24 39 30.33 1027 10 16 0.00 0.00
12:26 pm 12:26 Partly Cloudy 22 -5.6 16 -8.9 78 78 S 18 30 30.33 1027 10 16 0.00 0.00
12:53 pm 12:53 Sunny 23 -5 18 -7.8 81 81 S 16 26 30.30 1026 10 16 0.00 0.00
1:53 pm 13:53 Sunny 25 -3.9 19 -7.2 78 78 S 16 26 30.28 1025 10 16 0.00 0.00
2:53 pm 14:53 Sunny 26 -3.3 20 -6.7 78 78 S 17 28 30.25 1025 10 16 0.00 0.00
3:53 pm 15:53 Sunny 27 -2.8 21 -6.1 78 78 S 16 26 30.23 1024 10 16 0.00 0.00
4:53 pm 16:53 Sunny 28 -2.2 22 -5.6 78 78 S 18 30 30.22 1023 10 16 0.00 0.00
5:53 pm 17:53 Sunny 28 -2.2 22 -5.6 78 78 SSE 16 26 30.21 1023 10 16 0.00 0.00
6:53 pm 18:53 Mostly Sunny 27 -2.8 22 -5.6 81 81 SSE 12 19 30.21 1023 10 16 0.00 0.00
7:53 pm 19:53 Cloudy 27 -2.8 22 -5.6 81 81 SSE 13 20 30.20 1023 10 16 0.00 0.00
8:53 pm 20:53 Cloudy 27 -2.8 22 -5.6 81 81 SSE 13 20 30.19 1022 10 16 0.00 0.00
9:53 pm 21:53 Cloudy 27 -2.8 22 -5.6 81 81 SSE 15 24 30.17 1022 10 16 0.00 0.00
10:53 pm 22:53 Cloudy 28 -2.2 22 -5.6 78 78 SSE 17 28 30.15 1021 10 16 0.00 0.00
11:53 pm 23:53 Mostly Cloudy 28 -2.2 22 -5.6 78 78 SSE 13 20 30.13 1020 10 16 0.00 0.00

Powered by AerisWeather